QPF
0.00 0.00 0.00 0.00 0.00 0.00 0.00 0.00 0.00 0.00 0.00 0.01 0.00 0.00 0.00 0.00 0.00 0.00 0.00 0.00 0.00 0.00 0.00 0.00 0.01 0.00 0.00 0.00 0.00 0.01 0.05 0.06 0.04 0.03 0.01 0.00 0.00 0.00 0.00 0.00 0.00 0.00 0.01 0.00 0.00 0.00 0.00 0.00 0.00
0.00 0.00 0.00 0.00 0.00 0.00 0.00 0.00 0.00 0.00 0.00 0.02 0.01 0.00 0.00 0.00 0.00 0.00 0.00 0.00 0.00 0.00 0.00 0.00 0.02 0.01 0.00 0.01 0.01 0.00 0.02 0.01 0.02 0.03 0.03 0.00 0.00 0.00 0.00 0.00 0.00 0.00 0.00 0.00 0.00 0.00 0.00 0.00 0.01
0.00 0.00 0.00 0.00 0.00 0.00 0.00 0.00 0.00 0.00 0.00 0.00 0.00 0.00 0.00 0.00 0.00 0.00 0.00 0.00 0.00 0.00 0.00 0.01 0.07 0.09 0.09 0.04 0.01 0.00 0.01 0.03 0.08 0.09 0.07 0.03 0.02 0.04 0.01 0.01 0.00 0.05 0.01 0.01 0.02 0.00 0.00 0.00 0.01
0.00 0.00 0.00 0.00 0.00 0.00 0.00 0.00 0.00 0.00 0.00 0.00 0.00 0.00 0.00 0.00 0.00 0.00 0.00 0.00 0.00 0.00 0.00 0.03 0.08 0.05 0.19 0.03 0.00 0.00 0.00 0.08 0.17 0.11 0.07 0.05 0.06 0.09 0.10 0.01 0.01 0.05 0.04 0.02 0.00 0.00 0.00 0.00 0.00
0.00 0.00 0.00 0.00 0.00 0.00 0.00 0.00 0.00 0.00 0.00 0.00 0.00 0.00 0.00 0.00 0.00 0.00 0.00 0.00 0.00 0.00 0.00 0.05 0.12 0.16 0.22 0.00 0.00 0.00 0.00 0.06 0.12 0.09 0.09 0.05 0.01 0.10 0.20 0.08 0.04 0.03 0.02 0.01 0.00 0.00 0.00 0.00 0.00
0.00 0.00 0.00 0.00 0.00 0.00 0.00 0.00 0.00 0.00 0.00 0.00 0.00 0.00 0.00 0.00 0.00 0.00 0.00 0.00 0.00 0.01 0.01 0.13 0.22 0.35 0.38 0.11 0.03 0.00 0.00 0.08 0.09 0.09 0.13 0.12 0.01 0.02 0.13 0.15 0.07 0.04 0.00 0.00 0.00 0.00 0.00 0.00 0.05
0.00 0.00 0.00 0.00 0.00 0.00 0.00 0.00 0.00 0.00 0.00 0.00 0.00 0.00 0.00 0.00 0.00 0.00 0.00 0.00 0.00 0.03 0.14 0.13 0.24 0.42 0.30 0.16 0.06 0.00 0.02 0.07 0.14 0.16 0.14 0.12 0.05 0.04 0.03 0.05 0.05 0.01 0.00 0.00 0.00 0.00 0.00 0.00 0.00
0.00 0.00 0.00 0.00 0.00 0.00 0.00 0.00 0.00 0.00 0.00 0.01 0.00 0.00 0.00 0.00 0.00 0.00 0.00 0.00 0.00 0.01 0.01 0.10 0.22 0.35 0.18 0.10 0.06 0.13 0.15 0.16 0.15 0.19 0.19 0.12 0.06 0.01 0.00 0.03 0.05 0.01 0.00 0.00 0.00 0.00 0.00 0.00 0.00
0.00 0.00 0.00 0.00 0.00 0.00 0.00 0.00 0.00 0.00 0.00 0.00 0.00 0.00 0.00 0.00 0.00 0.00 0.00 0.00 0.00 0.00 0.00 0.03 0.16 0.20 0.25 0.23 0.18 0.26 0.23 0.20 0.20 0.18 0.16 0.09 0.03 0.02 0.01 0.03 0.00 0.00 0.00 0.00 0.00 0.00 0.06 0.10 0.09
0.00 0.00 0.00 0.00 0.00 0.00 0.00 0.00 0.00 0.00 0.00 0.00 0.00 0.00 0.00 0.00 0.00 0.00 0.00 0.00 0.00 0.00 0.00 0.00 0.05 0.11 0.17 0.17 0.16 0.23 0.20 0.17 0.20 0.09 0.03 0.00 0.02 0.04 0.05 0.02 0.00 0.00 0.00 0.00 0.00 0.00 0.09 0.07 0.00
0.00 0.00 0.00 0.00 0.00 0.00 0.00 0.00 0.00 0.00 0.00 0.00 0.00 0.00 0.00 0.00 0.00 0.00 0.00 0.00 0.00 0.00 0.00 0.00 0.00 0.02 0.13 0.13 0.13 0.09 0.08 0.10 0.04 0.00 0.00 0.00 0.00 0.02 0.02 0.00 0.00 0.00 0.00 0.00 0.00 0.00 0.00 0.01 0.00
0.00 0.00 0.00 0.00 0.00 0.00 0.00 0.00 0.00 0.00 0.00 0.00 0.00 0.00 0.00 0.00 0.00 0.00 0.00 0.00 0.00 0.00 0.00 0.00 0.00 0.00 0.02 0.03 0.07 0.05 0.03 0.00 0.00 0.00 0.00 0.00 0.00 0.00 0.00 0.00 0.00 0.00 0.00 0.00 0.00 0.00 0.00 0.00 0.00
0.00 0.00 0.00 0.00 0.00 0.00 0.00 0.00 0.00 0.00 0.00 0.00 0.00 0.00 0.00 0.00 0.00 0.00 0.00 0.00 0.00 0.00 0.00 0.00 0.00 0.00 0.00 0.00 0.01 0.01 0.00 0.00 0.00 0.00 0.00 0.00 0.00 0.00 0.00 0.00 0.00 0.00 0.00 0.00 0.00 0.00 0.00 0.00 0.00
0.00 0.00 0.00 0.00 0.00 0.00 0.00 0.00 0.00 0.00 0.00 0.00 0.00 0.00 0.00 0.00 0.00 0.00 0.00 0.00 0.00 0.00 0.00 0.00 0.00 0.00 0.00 0.00 0.00 0.00 0.00 0.00 0.00 0.00 0.00 0.00 0.00 0.00 0.00 0.00 0.00 0.00 0.00 0.00 0.00 0.00 0.00 0.00 0.00
0.00 0.00 0.00 0.00 0.00 0.00 0.00 0.00 0.00 0.00 0.00 0.00 0.00 0.00 0.00 0.00 0.00 0.00 0.00 0.00 0.00 0.00 0.00 0.00 0.00 0.00 0.00 0.00 0.00 0.00 0.00 0.00 0.00 0.00 0.00 0.00 0.00 0.00 0.00 0.00 0.00 0.00 0.00 0.00 0.00 0.00 0.00 0.00 0.00
0.00 0.00 0.00 0.00 0.00 0.00 0.00 0.00 0.00 0.00 0.00 0.00 0.00 0.00 0.00 0.00 0.00 0.00 0.00 0.00 0.00 0.00 0.00 0.02 0.01 0.00 0.01 0.00 0.00 0.00 0.00 0.00 0.00 0.00 0.00 0.00 0.00 0.00 0.00 0.00 0.00 0.00 0.00 0.00 0.00 0.00 0.00 0.00 0.00
0.00 0.00 0.00 0.00 0.00 0.00 0.00 0.00 0.00 0.00 0.00 0.00 0.00 0.00 0.00 0.00 0.00 0.00 0.00 0.00 0.00 0.00 0.00 0.02 0.03 0.06 0.06 0.00 0.00 0.00 0.00 0.00 0.00 0.00 0.00 0.00 0.00 0.00 0.00 0.00 0.00 0.00 0.00 0.00 0.00 0.00 0.00 0.00 0.00
0.00 0.00 0.00 0.00 0.00 0.00 0.00 0.00 0.00 0.00 0.00 0.00 0.00 0.00 0.00 0.00 0.00 0.00 0.00 0.00 0.00 0.00 0.00 0.01 0.08 0.10 0.02 0.00 0.00 0.00 0.00 0.00 0.00 0.00 0.00 0.00 0.00 0.00 0.00 0.00 0.00 0.00 0.00 0.00 0.00 0.00 0.00 0.00 0.00
0.00 0.00 0.00 0.00 0.00 0.00 0.00 0.00 0.00 0.00 0.00 0.00 0.00 0.00 0.00 0.00 0.00 0.00 0.00 0.00 0.00 0.00 0.00 0.00 0.07 0.06 0.00 0.00 0.00 0.00 0.00 0.00 0.00 0.00 0.00 0.00 0.00 0.00 0.00 0.00 0.00 0.00 0.00 0.00 0.00 0.00 0.00 0.00 0.00
0.00 0.00 0.00 0.00 0.00 0.00 0.00 0.00 0.00 0.00 0.00 0.00 0.00 0.00 0.00 0.00 0.00 0.00 0.00 0.00 0.00 0.00 0.00 0.00 0.00 0.00 0.00 0.00 0.00 0.00 0.00 0.00 0.00 0.00 0.00 0.00 0.00 0.00 0.00 0.00 0.00 0.00 0.00 0.00 0.00 0.00 0.00 0.00 0.00
0.00 0.00 0.00 0.00 0.00 0.00 0.00 0.00 0.00 0.00 0.00 0.00 0.00 0.00 0.00 0.00 0.00 0.00 0.00 0.00 0.00 0.00 0.00 0.00 0.00 0.00 0.00 0.00 0.00 0.00 0.00 0.00 0.00 0.00 0.00 0.00 0.00 0.00 0.00 0.00 0.00 0.00 0.00 0.00 0.00 0.00 0.00 0.00 0.00
0.00 0.00 0.00 0.00 0.00 0.00 0.00 0.00 0.00 0.00 0.00 0.00 0.00 0.00 0.00 0.00 0.00 0.00 0.00 0.00 0.00 0.00 0.00 0.00 0.00 0.00 0.00 0.00 0.00 0.00 0.00 0.00 0.00 0.00 0.00 0.00 0.00 0.00 0.00 0.00 0.00 0.00 0.00 0.00 0.00 0.00 0.01 0.00 0.00
0.00 0.00 0.00 0.00 0.00 0.00 0.00 0.00 0.00 0.00 0.00 0.00 0.00 0.00 0.00 0.00 0.00 0.00 0.00 0.00 0.00 0.00 0.00 0.00 0.00 0.00 0.00 0.00 0.00 0.00 0.00 0.00 0.00 0.00 0.00 0.00 0.00 0.00 0.00 0.01 0.00 0.00 0.00 0.00 0.00 0.05 0.02 0.00 0.00
0.00 0.00 0.00 0.00 0.00 0.00 0.00 0.00 0.00 0.00 0.00 0.00 0.00 0.00 0.00 0.00 0.00 0.00 0.00 0.00 0.00 0.00 0.00 0.00 0.00 0.00 0.00 0.00 0.00 0.00 0.00 0.00 0.00 0.00 0.00 0.00 0.00 0.00 0.00 0.00 0.00 0.00 0.00 0.03 0.00 0.01 0.01 0.00 0.00
0.00 0.00 0.00 0.00 0.00 0.00 0.00 0.00 0.00 0.00 0.00 0.00 0.00 0.00 0.00 0.00 0.00 0.00 0.00 0.00 0.00 0.00 0.00 0.00 0.00 0.00 0.00 0.00 0.00 0.00 0.00 0.00 0.00 0.00 0.00 0.00 0.00 0.00 0.00 0.00 0.00 0.00 0.00 0.00 0.00 0.02 0.01 0.01 0.01
0.00 0.00 0.00 0.00 0.00 0.00 0.00 0.00 0.00 0.00 0.00 0.00 0.00 0.00 0.00 0.00 0.00 0.00 0.00 0.00 0.00 0.00 0.01 0.00 0.00 0.00 0.00 0.00 0.00 0.00 0.00 0.00 0.00 0.00 0.00 0.00 0.00 0.00 0.00 0.00 0.00 0.00 0.00 0.00 0.02 0.02 0.01 0.00 0.02
0.00 0.00 0.00 0.00 0.00 0.00 0.00 0.00 0.00 0.00 0.00 0.00 0.00 0.00 0.00 0.00 0.00 0.00 0.00 0.00 0.00 0.00 0.00 0.01 0.00 0.00 0.00 0.00 0.00 0.00 0.00 0.00 0.00 0.00 0.00 0.00 0.00 0.00 0.00 0.00 0.00 0.00 0.00 0.00 0.08 0.06 0.04 0.03 0.02
0.00 0.00 0.00 0.00 0.00 0.00 0.00 0.00 0.00 0.00 0.00 0.00 0.00 0.00 0.00 0.00 0.00 0.00 0.00 0.00 0.00 0.00 0.00 0.00 0.04 0.00 0.00 0.00 0.00 0.00 0.00 0.00 0.00 0.00 0.00 0.00 0.00 0.00 0.00 0.00 0.00 0.00 0.00 0.00 0.01 0.06 0.04 0.06 0.04
0.00 0.00 0.00 0.00 0.00 0.00 0.00 0.00 0.00 0.00 0.00 0.00 0.00 0.00 0.00 0.00 0.00 0.00 0.00 0.00 0.00 0.00 0.00 0.00 0.01 0.00 0.00 0.00 0.00 0.00 0.00 0.00 0.00 0.00 0.00 0.00 0.00 0.00 0.00 0.00 0.01 0.00 0.00 0.00 0.00 0.04 0.03 0.03 0.04
0.00 0.00 0.00 0.00 0.00 0.00 0.00 0.00 0.00 0.00 0.00 0.00 0.00 0.00 0.00 0.00 0.00 0.00 0.00 0.00 0.00 0.00 0.00 0.00 0.00 0.01 0.00 0.00 0.00 0.00 0.00 0.00 0.00 0.00 0.00 0.00 0.00 0.00 0.00 0.00 0.00 0.00 0.00 0.00 0.00 0.05 0.02 0.01 0.02
MSLP
1010.77 1010.81 1010.89 1010.74 1011.02 1010.29 1010.36 1010.57 1010.38 1010.18 1010.06 1010.40 1010.31 1010.19 1010.53 1011.10 1011.12 1012.06 1012.20 1012.51 1012.72 1013.48 1014.08 1014.59 1015.08 1015.30 1015.59 1015.76 1015.70 1015.93 1016.14 1016.35 1016.63 1016.86 1017.14 1017.41 1017.49 1017.63 1017.76 1017.98 1018.22 1018.35 1018.47 1018.58 1018.94 1018.90 1019.05 1019.10 1019.23
1010.63 1010.84 1010.88 1010.64 1010.48 1010.02 1010.47 1010.38 1010.21 1010.37 1010.30 1010.29 1010.37 1010.43 1010.70 1011.14 1011.76 1012.31 1012.52 1012.80 1012.86 1013.36 1014.11 1014.73 1015.17 1015.30 1015.64 1015.94 1016.13 1015.88 1016.37 1016.61 1016.93 1017.13 1017.51 1017.58 1017.68 1017.76 1017.97 1018.11 1018.37 1018.59 1018.62 1018.83 1018.89 1019.08 1019.18 1019.25 1019.38
1010.71 1010.79 1010.66 1010.54 1010.62 1010.35 1010.39 1010.51 1010.40 1010.32 1010.12 1010.11 1010.21 1010.58 1010.95 1011.54 1012.08 1012.30 1012.57 1012.86 1013.19 1013.84 1014.31 1014.94 1015.17 1015.50 1015.90 1016.19 1016.44 1016.28 1016.40 1016.97 1017.27 1017.48 1017.56 1017.71 1017.80 1017.84 1018.14 1018.24 1018.44 1018.66 1018.72 1018.82 1018.98 1019.03 1019.11 1019.37 1019.62
1010.46 1010.64 1010.89 1010.57 1010.49 1010.73 1010.71 1010.73 1010.54 1010.26 1010.10 1010.15 1010.33 1010.74 1011.45 1011.90 1012.12 1012.44 1012.86 1013.06 1013.38 1014.03 1014.42 1015.08 1015.44 1015.82 1016.00 1016.78 1016.71 1016.52 1016.65 1016.88 1017.48 1017.71 1017.54 1017.64 1017.81 1018.15 1018.33 1018.39 1018.51 1018.68 1018.79 1018.73 1018.94 1018.98 1019.03 1019.23 1019.52
1010.49 1010.34 1010.29 1010.44 1010.62 1010.78 1010.78 1010.78 1010.53 1010.30 1010.26 1010.13 1010.24 1010.83 1011.59 1012.20 1012.42 1012.75 1013.08 1013.16 1013.37 1014.07 1014.59 1015.18 1015.72 1016.29 1016.76 1017.37 1017.36 1017.23 1017.14 1017.47 1017.59 1017.79 1017.52 1017.63 1017.86 1018.25 1018.54 1018.52 1018.65 1018.66 1018.76 1018.90 1019.03 1018.96 1019.08 1019.16 1019.33
1009.98 1010.36 1010.27 1010.35 1010.42 1010.46 1010.45 1010.37 1010.30 1010.20 1010.10 1010.18 1010.32 1010.84 1011.75 1012.48 1012.74 1012.93 1013.20 1013.41 1013.47 1014.10 1014.49 1015.25 1015.84 1016.30 1016.90 1017.61 1018.02 1017.85 1017.74 1017.74 1017.64 1017.86 1017.81 1017.84 1017.93 1018.16 1018.45 1018.61 1018.66 1018.72 1018.79 1018.89 1019.00 1018.97 1019.16 1019.16 1019.28
1009.96 1010.24 1010.41 1010.37 1010.22 1010.03 1009.97 1010.11 1010.00 1009.75 1009.82 1009.78 1010.10 1010.56 1011.94 1012.48 1012.92 1013.15 1013.35 1013.62 1013.85 1014.30 1014.68 1015.24 1015.73 1016.41 1017.37 1017.90 1018.20 1017.99 1018.14 1017.94 1017.92 1017.99 1018.04 1018.15 1018.15 1018.20 1018.25 1018.51 1018.71 1018.75 1018.82 1018.87 1018.98 1019.09 1019.29 1019.39 1019.30
1010.25 1010.43 1010.23 1010.22 1010.07 1009.65 1009.57 1009.66 1009.52 1009.44 1009.74 1009.87 1010.05 1010.14 1011.01 1012.02 1012.98 1013.37 1013.71 1013.85 1014.28 1014.57 1014.80 1015.12 1015.51 1016.31 1017.07 1017.42 1017.53 1017.72 1017.96 1017.95 1018.16 1018.27 1018.23 1018.24 1018.17 1018.24 1018.31 1018.61 1018.76 1018.81 1018.82 1018.82 1019.00 1019.11 1019.30 1019.26 1019.30
1010.37 1010.19 1009.91 1009.72 1009.69 1009.27 1009.33 1009.21 1009.18 1009.17 1009.47 1009.81 1010.07 1010.39 1010.82 1011.96 1012.92 1013.37 1013.94 1014.40 1014.49 1014.99 1015.19 1015.21 1015.47 1016.07 1016.66 1017.35 1017.56 1017.85 1018.00 1018.06 1018.21 1018.35 1018.39 1018.29 1018.42 1018.33 1018.36 1018.57 1018.70 1018.74 1018.79 1018.90 1019.00 1019.05 1019.25 1019.23 1019.33
1009.98 1009.96 1009.54 1009.30 1009.07 1008.88 1009.10 1009.07 1008.82 1009.01 1009.38 1009.90 1010.40 1011.02 1011.50 1012.33 1012.80 1013.20 1013.64 1013.95 1014.22 1014.88 1015.42 1015.40 1015.50 1015.87 1016.47 1016.91 1017.31 1017.60 1017.93 1018.23 1018.47 1018.52 1018.48 1018.44 1018.65 1018.54 1018.40 1018.54 1018.68 1018.72 1018.78 1018.87 1018.90 1018.90 1019.02 1019.06 1019.14
1009.81 1009.44 1009.17 1008.75 1008.66 1008.60 1008.73 1008.88 1008.81 1008.78 1009.15 1009.26 1009.69 1010.86 1011.85 1012.37 1012.73 1013.05 1013.37 1013.58 1013.94 1014.44 1015.03 1015.51 1015.70 1015.84 1016.18 1016.71 1017.21 1017.49 1017.77 1018.01 1018.34 1018.52 1018.60 1018.70 1018.61 1018.57 1018.30 1018.36 1018.39 1018.67 1018.69 1018.55 1018.69 1018.68 1018.71 1018.99 1019.23
1009.44 1008.91 1008.88 1008.38 1008.14 1008.18 1008.29 1008.42 1008.49 1008.62 1008.63 1008.90 1009.42 1010.61 1011.76 1012.13 1012.25 1012.60 1013.05 1013.51 1014.04 1014.40 1014.88 1015.36 1015.66 1015.98 1016.34 1016.69 1017.20 1017.52 1017.75 1018.12 1018.27 1018.37 1018.53 1018.59 1018.45 1018.62 1018.50 1018.40 1018.49 1018.76 1018.59 1018.50 1018.61 1018.76 1018.98 1019.09 1019.20
1009.08 1008.60 1008.28 1007.99 1007.98 1008.02 1008.13 1008.04 1008.18 1008.21 1008.59 1009.06 1009.73 1010.74 1011.44 1011.88 1012.18 1012.37 1012.78 1013.41 1013.91 1014.19 1014.72 1015.25 1015.80 1016.21 1016.54 1016.87 1017.00 1017.46 1017.60 1017.60 1017.69 1018.03 1018.53 1018.60 1018.45 1018.50 1018.42 1018.41 1018.55 1018.64 1018.60 1018.42 1018.57 1018.67 1018.66 1018.77 1018.81
1008.70 1008.48 1008.04 1007.82 1007.89 1007.99 1008.06 1008.07 1008.34 1008.15 1008.53 1009.13 1009.83 1010.44 1011.22 1011.68 1011.91 1012.41 1012.89 1013.24 1013.73 1014.05 1014.61 1015.25 1015.81 1016.09 1016.36 1016.73 1016.92 1017.18 1017.71 1017.56 1017.84 1018.03 1018.36 1018.46 1018.41 1018.36 1018.26 1018.29 1018.30 1018.39 1018.36 1018.33 1018.49 1018.54 1018.43 1018.51 1018.62
1008.66 1008.30 1007.82 1007.88 1007.91 1007.87 1008.03 1007.98 1007.60 1008.00 1008.44 1008.94 1009.63 1010.32 1010.91 1011.40 1011.85 1012.07 1012.46 1012.82 1013.40 1013.86 1014.49 1015.09 1015.69 1015.96 1016.44 1016.78 1016.84 1016.90 1017.60 1017.65 1017.56 1017.73 1018.06 1018.35 1018.23 1018.22 1018.36 1018.16 1018.37 1018.13 1018.24 1018.39 1018.52 1018.51 1018.43 1018.25 1018.33
1008.64 1008.53 1008.00 1007.75 1007.93 1007.93 1008.07 1007.24 1007.38 1007.99 1008.42 1008.73 1009.41 1009.98 1010.66 1010.97 1011.43 1011.84 1012.21 1012.53 1012.99 1013.53 1014.29 1014.88 1015.24 1015.82 1016.30 1016.64 1016.80 1016.80 1017.22 1017.71 1017.71 1017.95 1018.11 1018.02 1017.98 1018.17 1018.24 1018.13 1018.08 1018.15 1018.14 1018.29 1018.33 1018.47 1018.32 1018.35 1018.37
1008.90 1008.59 1008.20 1007.74 1007.81 1007.84 1008.00 1006.80 1007.31 1007.93 1008.36 1008.58 1009.11 1009.64 1010.22 1010.67 1011.11 1011.38 1011.76 1012.19 1012.58 1013.20 1013.89 1014.58 1015.05 1015.55 1016.08 1016.43 1016.70 1016.94 1017.27 1017.44 1017.69 1017.78 1017.79 1017.85 1017.99 1018.07 1018.12 1018.09 1018.07 1018.12 1018.04 1018.24 1018.34 1018.46 1018.58 1018.41 1018.33
1009.04 1008.60 1008.11 1007.90 1007.54 1007.48 1007.41 1006.62 1007.12 1007.76 1008.13 1008.26 1008.60 1009.15 1009.80 1010.03 1010.10 1010.66 1011.16 1011.73 1012.31 1012.85 1013.59 1014.37 1015.09 1015.39 1015.98 1016.31 1016.64 1016.78 1017.41 1017.44 1017.40 1017.42 1017.33 1017.60 1017.63 1017.77 1017.90 1017.76 1017.91 1017.93 1018.19 1018.39 1018.52 1018.65 1018.73 1018.65 1018.46
1009.20 1008.80 1008.39 1007.20 1007.17 1007.22 1006.72 1006.50 1006.36 1007.08 1007.62 1007.95 1008.14 1008.55 1008.78 1009.13 1009.57 1010.15 1010.65 1011.25 1011.99 1012.51 1013.21 1013.94 1014.87 1015.29 1015.71 1016.19 1016.44 1016.70 1016.87 1017.28 1017.41 1017.32 1017.53 1017.42 1017.44 1017.58 1017.59 1017.47 1017.60 1017.74 1017.98 1018.42 1018.64 1018.68 1018.60 1018.50 1018.67
1008.75 1008.43 1007.57 1007.10 1007.09 1007.18 1006.63 1005.93 1005.86 1006.17 1006.69 1007.20 1007.69 1007.97 1008.14 1008.62 1009.27 1009.77 1010.21 1010.83 1011.46 1012.05 1012.78 1013.55 1014.23 1014.90 1015.28 1015.69 1016.07 1016.41 1016.66 1016.82 1016.87 1016.93 1017.16 1017.19 1017.23 1017.40 1017.43 1017.37 1017.55 1017.67 1017.82 1018.28 1018.58 1018.56 1018.40 1018.55 1018.81
1007.93 1007.76 1007.37 1007.24 1006.99 1007.37 1006.69 1005.67 1005.79 1006.31 1006.69 1007.27 1007.52 1007.53 1007.82 1008.10 1008.68 1009.19 1009.82 1010.29 1011.09 1011.71 1012.35 1012.92 1013.64 1014.25 1014.84 1015.32 1015.84 1016.24 1016.59 1016.76 1016.88 1016.86 1016.92 1016.89 1017.12 1017.13 1017.33 1017.34 1017.48 1017.71 1017.94 1017.94 1018.29 1018.44 1018.41 1018.35 1018.71
1007.39 1007.37 1007.35 1006.83 1006.73 1006.97 1007.35 1006.25 1005.68 1005.90 1005.97 1006.57 1006.89 1007.20 1007.33 1007.93 1008.48 1008.85 1009.37 1009.94 1010.46 1011.28 1012.08 1012.67 1013.30 1013.92 1014.45 1015.06 1015.29 1015.70 1015.72 1015.87 1016.18 1016.39 1016.68 1016.78 1016.95 1016.98 1017.13 1017.35 1017.44 1017.74 1017.70 1017.92 1018.00 1018.20 1018.26 1018.32 1018.28
1006.98 1007.18 1007.15 1006.87 1006.82 1007.13 1007.23 1006.75 1005.35 1005.52 1005.08 1005.30 1006.08 1006.56 1006.94 1007.31 1007.74 1008.22 1008.93 1009.58 1010.28 1011.15 1011.81 1012.28 1013.06 1013.71 1014.00 1014.60 1014.88 1015.24 1015.47 1015.53 1015.89 1016.17 1016.49 1016.75 1016.88 1016.89 1017.06 1017.40 1017.47 1017.59 1017.57 1017.80 1017.72 1018.02 1018.28 1018.17 1018.12
1006.81 1006.80 1006.96 1007.01 1006.86 1006.49 1007.22 1006.76 1004.85 1004.96 1005.17 1005.19 1005.43 1005.85 1006.34 1006.70 1007.28 1007.76 1008.50 1009.26 1010.06 1011.03 1011.53 1012.18 1012.78 1013.37 1013.77 1014.18 1014.66 1014.83 1015.03 1015.31 1015.65 1015.97 1016.11 1016.45 1016.54 1016.73 1016.91 1017.09 1017.23 1017.23 1017.25 1017.40 1017.42 1017.71 1017.94 1017.90 1017.97
1006.51 1006.43 1006.17 1006.12 1006.17 1006.19 1006.96 1006.38 1005.25 1005.27 1005.34 1005.22 1005.19 1005.50 1005.75 1006.29 1006.87 1007.41 1008.03 1008.85 1009.71 1010.50 1011.16 1011.60 1012.23 1012.82 1013.41 1013.95 1014.26 1014.58 1014.80 1015.10 1015.24 1015.60 1015.73 1015.83 1016.10 1016.35 1016.67 1016.83 1016.98 1017.05 1017.09 1017.10 1017.04 1017.43 1017.71 1017.70 1017.69
1006.09 1005.90 1005.63 1005.80 1006.11 1006.26 1006.50 1005.57 1005.28 1005.64 1005.91 1005.71 1005.41 1005.59 1005.83 1006.04 1006.50 1006.98 1007.62 1008.36 1008.99 1009.83 1010.61 1011.16 1011.68 1012.24 1012.85 1013.58 1013.93 1014.34 1014.70 1014.84 1015.02 1015.29 1015.46 1015.61 1015.68 1015.91 1016.21 1016.51 1016.59 1016.71 1016.79 1016.82 1016.83 1017.20 1017.45 1017.69 1017.64
1006.15 1006.14 1005.93 1005.85 1006.99 1006.39 1005.98 1005.36 1005.12 1005.76 1006.08 1006.40 1005.97 1005.80 1005.88 1006.03 1006.30 1006.63 1007.07 1007.61 1008.42 1009.05 1009.84 1010.33 1010.95 1011.60 1012.22 1012.84 1013.46 1013.86 1014.23 1014.53 1014.63 1015.05 1015.31 1015.41 1015.70 1015.74 1015.94 1016.07 1016.40 1016.41 1016.55 1016.61 1016.83 1017.11 1017.31 1017.37 1017.50
1005.78 1006.10 1006.11 1005.94 1005.97 1005.92 1006.15 1006.39 1006.38 1006.80 1007.42 1007.69 1007.22 1006.93 1006.68 1006.44 1006.41 1006.39 1006.78 1007.43 1007.84 1008.35 1009.14 1009.94 1010.47 1010.73 1011.56 1012.35 1012.85 1013.23 1013.57 1014.03 1014.28 1014.67 1014.89 1015.15 1015.38 1015.61 1015.82 1015.96 1016.23 1016.34 1016.40 1016.51 1016.70 1016.83 1016.92 1017.13 1017.22
1005.92 1005.82 1006.32 1006.21 1006.41 1006.00 1006.28 1006.83 1008.35 1008.98 1009.37 1009.13 1008.82 1008.40 1007.87 1007.31 1006.67 1006.36 1006.36 1006.79 1007.44 1008.17 1008.62 1009.21 1009.92 1010.40 1011.00 1011.65 1012.23 1012.69 1013.09 1013.51 1013.97 1014.18 1014.44 1014.74 1015.11 1015.29 1015.52 1015.69 1015.94 1016.14 1016.32 1016.37 1016.59 1016.62 1016.59 1016.68 1016.90
1005.78 1005.75 1005.78 1005.59 1006.61 1007.09 1007.23 1007.69 1009.09 1009.95 1010.31 1010.30 1009.84 1009.42 1008.94 1008.35 1007.52 1006.58 1006.26 1006.59 1007.01 1007.48 1008.22 1008.77 1009.26 1009.82 1010.21 1010.84 1011.68 1012.16 1012.65 1013.09 1013.33 1013.67 1014.00 1014.33 1014.58 1014.90 1015.08 1015.24 1015.43 1015.75 1015.89 1016.03 1016.17 1016.09 1016.25 1016.35 1016.41
Thickness
5804 5804 5803 5797 5775 5777 5760 5762 5781 5775 5778 5788 5793 5790 5785 5781 5779 5766 5793 5794 5792 5785 5781 5776 5772 5770 5769 5767 5769 5769 5768 5766 5763 5760 5757 5756 5756 5755 5754 5752 5749 5746 5746 5745 5741 5742 5741 5740 5738
5804 5803 5798 5786 5770 5762 5756 5775 5771 5776 5783 5792 5790 5788 5783 5776 5785 5781 5784 5790 5789 5784 5778 5773 5770 5770 5767 5764 5764 5768 5765 5764 5761 5758 5754 5754 5753 5753 5752 5750 5748 5744 5744 5742 5742 5739 5738 5737 5735
5804 5803 5786 5776 5762 5757 5759 5773 5776 5783 5792 5789 5785 5791 5784 5776 5782 5783 5790 5789 5784 5779 5775 5770 5768 5766 5763 5758 5760 5763 5763 5759 5757 5755 5752 5752 5752 5752 5749 5749 5747 5744 5744 5743 5741 5739 5737 5735 5731
5800 5794 5787 5770 5759 5765 5764 5773 5779 5781 5788 5793 5790 5777 5785 5789 5785 5788 5787 5786 5782 5776 5772 5767 5763 5761 5760 5753 5757 5761 5757 5756 5751 5752 5753 5752 5752 5748 5747 5746 5745 5745 5745 5744 5742 5740 5738 5735 5732
5800 5790 5771 5765 5761 5767 5773 5777 5782 5777 5780 5785 5790 5776 5775 5785 5789 5787 5784 5783 5779 5774 5769 5764 5759 5754 5750 5746 5750 5753 5753 5752 5751 5752 5754 5754 5752 5748 5747 5747 5745 5746 5745 5742 5739 5738 5736 5735 5733
5788 5785 5764 5756 5764 5772 5777 5783 5782 5781 5784 5783 5782 5778 5775 5784 5782 5782 5781 5778 5777 5772 5768 5762 5757 5754 5749 5743 5741 5745 5748 5750 5750 5750 5751 5751 5752 5750 5748 5746 5746 5747 5744 5741 5739 5738 5736 5735 5734
5780 5773 5760 5762 5764 5770 5777 5788 5780 5783 5782 5782 5790 5776 5774 5777 5781 5781 5778 5775 5772 5767 5764 5760 5757 5752 5743 5736 5736 5739 5742 5746 5746 5746 5749 5748 5751 5750 5750 5748 5747 5746 5743 5741 5740 5738 5734 5733 5734
5783 5774 5763 5764 5759 5767 5785 5786 5792 5787 5781 5797 5794 5777 5775 5779 5779 5777 5774 5771 5768 5766 5763 5761 5757 5752 5747 5745 5743 5742 5742 5744 5743 5744 5746 5747 5751 5750 5750 5747 5745 5745 5744 5742 5740 5739 5736 5734 5733
5790 5766 5758 5765 5762 5775 5787 5782 5795 5801 5788 5790 5791 5787 5789 5784 5779 5773 5766 5763 5763 5759 5759 5759 5757 5753 5748 5744 5742 5740 5740 5740 5741 5741 5744 5746 5749 5749 5749 5747 5746 5746 5745 5743 5741 5741 5739 5738 5737
5778 5764 5768 5782 5785 5782 5784 5783 5789 5785 5780 5777 5779 5783 5784 5779 5774 5768 5764 5761 5761 5757 5755 5758 5756 5754 5749 5746 5743 5740 5739 5739 5738 5739 5741 5745 5747 5747 5748 5748 5748 5747 5746 5745 5744 5744 5743 5742 5740
5777 5768 5782 5788 5792 5792 5785 5781 5790 5783 5772 5785 5782 5777 5774 5774 5772 5768 5766 5765 5762 5761 5756 5755 5755 5753 5751 5747 5743 5740 5740 5738 5736 5736 5739 5742 5745 5746 5749 5749 5749 5746 5747 5748 5747 5746 5746 5744 5742
5770 5786 5785 5792 5798 5793 5785 5791 5782 5784 5785 5795 5793 5783 5773 5770 5772 5770 5767 5765 5761 5759 5756 5755 5753 5751 5748 5745 5741 5739 5739 5736 5735 5736 5739 5741 5745 5745 5747 5748 5749 5746 5748 5749 5748 5748 5747 5746 5745
5775 5786 5795 5799 5798 5795 5794 5787 5785 5785 5792 5794 5787 5778 5773 5772 5771 5773 5772 5768 5763 5759 5757 5754 5751 5748 5745 5742 5741 5738 5737 5737 5737 5737 5738 5742 5744 5746 5747 5748 5749 5748 5749 5750 5749 5750 5750 5749 5749
5787 5788 5793 5797 5795 5794 5785 5784 5783 5788 5792 5785 5780 5775 5773 5770 5771 5768 5765 5764 5761 5760 5757 5753 5749 5747 5745 5743 5741 5738 5734 5735 5733 5736 5738 5741 5744 5746 5747 5749 5750 5750 5751 5750 5750 5751 5753 5753 5753
5786 5778 5791 5790 5791 5788 5791 5775 5779 5790 5789 5781 5776 5774 5772 5770 5770 5769 5767 5765 5763 5761 5758 5753 5749 5747 5745 5742 5741 5740 5733 5733 5734 5736 5738 5741 5745 5746 5747 5750 5750 5752 5752 5751 5751 5752 5753 5757 5756
5773 5776 5765 5789 5788 5790 5786 5772 5788 5791 5784 5778 5775 5772 5769 5770 5770 5771 5769 5768 5767 5764 5758 5755 5753 5749 5745 5742 5741 5740 5735 5733 5733 5735 5738 5741 5746 5747 5748 5750 5751 5752 5753 5753 5753 5754 5756 5757 5758
5766 5753 5761 5774 5790 5786 5781 5783 5791 5790 5783 5777 5773 5772 5768 5768 5770 5773 5773 5771 5769 5765 5761 5755 5754 5750 5745 5742 5742 5740 5736 5735 5735 5737 5740 5742 5745 5747 5749 5750 5752 5752 5754 5753 5754 5755 5754 5756 5759
5746 5754 5766 5765 5784 5786 5781 5787 5794 5788 5782 5778 5776 5775 5769 5769 5775 5777 5777 5775 5771 5768 5762 5756 5751 5749 5745 5743 5742 5741 5737 5737 5739 5741 5743 5744 5745 5748 5751 5753 5753 5753 5754 5753 5754 5754 5755 5756 5758
5760 5757 5757 5780 5792 5782 5787 5789 5795 5793 5784 5778 5778 5776 5776 5775 5781 5780 5779 5776 5771 5769 5762 5758 5750 5748 5745 5742 5742 5741 5740 5739 5740 5742 5742 5745 5747 5750 5752 5755 5755 5755 5755 5754 5754 5754 5755 5756 5757
5764 5759 5769 5785 5790 5785 5788 5791 5799 5798 5790 5786 5780 5779 5780 5780 5779 5778 5779 5776 5774 5770 5765 5759 5755 5751 5749 5747 5746 5745 5743 5743 5744 5745 5746 5747 5748 5750 5752 5754 5755 5756 5757 5753 5752 5754 5755 5755 5754
5771 5765 5770 5772 5785 5782 5785 5793 5792 5792 5790 5785 5783 5786 5785 5783 5781 5780 5778 5777 5775 5772 5769 5765 5760 5757 5753 5750 5747 5745 5744 5743 5743 5745 5747 5748 5749 5752 5752 5754 5755 5755 5755 5755 5755 5755 5755 5754 5755
5761 5780 5778 5782 5780 5766 5778 5764 5786 5787 5789 5786 5786 5784 5787 5785 5786 5785 5783 5779 5778 5775 5773 5769 5764 5759 5756 5752 5750 5746 5747 5746 5747 5748 5748 5748 5749 5752 5753 5752 5753 5753 5754 5756 5758 5759 5758 5757 5756
5773 5782 5779 5782 5777 5772 5767 5765 5797 5788 5796 5799 5793 5792 5794 5793 5793 5790 5787 5784 5782 5777 5772 5771 5766 5761 5760 5755 5753 5750 5747 5750 5750 5749 5747 5746 5748 5749 5751 5750 5751 5753 5754 5756 5759 5759 5757 5759 5759
5789 5782 5775 5774 5773 5766 5754 5764 5791 5793 5794 5800 5803 5801 5800 5801 5799 5797 5794 5789 5783 5777 5774 5770 5765 5762 5761 5758 5756 5753 5750 5748 5746 5745 5746 5746 5749 5749 5749 5750 5751 5753 5755 5757 5759 5760 5760 5760 5761
5781 5773 5755 5753 5756 5756 5760 5762 5785 5797 5802 5804 5805 5805 5807 5806 5803 5799 5795 5789 5784 5778 5775 5773 5769 5764 5762 5759 5757 5756 5753 5751 5749 5747 5747 5748 5749 5750 5750 5750 5752 5754 5755 5756 5758 5759 5760 5761 5762
5777 5780 5763 5731 5743 5756 5762 5768 5787 5801 5804 5809 5812 5810 5807 5806 5805 5802 5799 5794 5790 5784 5779 5775 5772 5768 5764 5760 5758 5756 5753 5753 5752 5751 5750 5750 5752 5754 5753 5752 5753 5754 5755 5757 5759 5761 5761 5760 5762
5773 5769 5786 5764 5745 5753 5766 5788 5805 5805 5800 5800 5808 5810 5809 5807 5808 5806 5804 5802 5795 5790 5784 5782 5778 5773 5769 5765 5760 5758 5756 5753 5753 5751 5750 5752 5752 5754 5753 5754 5755 5754 5755 5756 5759 5759 5759 5761 5761
5789 5787 5771 5767 5741 5739 5759 5759 5774 5780 5779 5785 5792 5798 5803 5808 5808 5810 5806 5801 5800 5797 5791 5785 5780 5778 5772 5768 5764 5762 5760 5757 5756 5753 5750 5751 5754 5753 5753 5753 5755 5755 5756 5757 5757 5758 5761 5761 5762
5779 5779 5767 5772 5759 5752 5747 5761 5767 5762 5765 5771 5778 5785 5792 5798 5805 5810 5810 5808 5802 5797 5795 5789 5783 5779 5773 5770 5767 5764 5762 5759 5756 5754 5753 5752 5753 5754 5752 5753 5755 5756 5756 5758 5757 5758 5760 5761 5761
5785 5778 5782 5770 5747 5745 5749 5760 5764 5758 5761 5764 5770 5776 5782 5789 5798 5806 5810 5808 5805 5800 5794 5789 5786 5782 5778 5774 5768 5764 5762 5760 5758 5755 5754 5753 5753 5753 5753 5755 5756 5756 5758 5759 5759 5760 5761 5761 5760